Location: Circle K Dam
(37.7517°N, 89.9701°W)
Time: 19:27:49
(UTC+00:00)

ARIANE 6 FM1 Upper Stage - Pass Details

Date: 17 October 2024
Orbit: 558 x 596 km, 62.0° (Epoch: 12 November)

Event Time Altitude Azimuth Distance (km) Brightness Sun altitude
Rises 01:04:13 0° 340° (NNW) 2,829 6.6 -21.3°
Reaches altitude 10° 01:07:15 10° 2° (N) 1,931 5.4 -21.9°
Enters shadow 01:08:18 13° 15° (NNE) 1,718 5.0 -22.1°
